Weather observations for the past three days for
Santa Rosa Route 66 Airport
Imperial (Metric)
Date Time (mdt) Wind (mph) Vis. (mi.) Weather Sky Cond. Temperature (ºF) Relative Humidity Wind Chill (°F) Heat Index (°F) Pressure Precipitation (in)
Air Dwpt 6 hour altimeter (in) sea level (mb) 1 hr 3 hr 6 hr
Max. Min.
13 02:15 SE 10 10.00 Fair CLR 68.2 55.2 63% 30.05 0.0
13 01:55 SE 8 10.00 Fair CLR 67.6 56.5 68% 30.05 0.0
13 01:35 SE 8 10.00 Fair CLR 68.2 55.9 65% 30.05 0.0
13 01:15 SE 7 10.00 Fair CLR 68.9 55.8 63% 30.05 0.0
13 00:55 SE 10 10.00 Fair CLR 68.9 55.6 63% 30.05 0.0
13 00:35 SE 10 10.00 Fair CLR 69.8 55.4 60% 30.06 0.0
13 00:15 SE 9 10.00 Fair CLR 70.7 55.2 58% 30.06 0.0
12 23:55 SE 10 10.00 Fair CLR 70.9 55.8 95.5 70.2 59% 30.07 0.0
12 23:35 SE 12 10.00 Fair CLR 71.6 55.8 58% 30.06 0.0
12 23:15 SW 3 10.00 Fair CLR 72 56.1 58% 30.05 0.0
12 22:55 SW 5 10.00 Fair CLR 74.3 54.3 50% 30.05 0.0
12 22:35 W 3 10.00 Fair CLR 76.3 52.9 44% 78 30.05 0.0
12 22:15 Calm 10.00 Fair CLR 75.4 53.8 47% 78 30.05 0.0
12 21:55 Calm 10.00 Fair CLR 75.6 54 47% 78 30.04 0.0
12 21:35 S 8 10.00 Fair CLR 80.1 51.3 37% 80 30.04 0.0
12 21:15 S 10 10.00 Fair CLR 81.7 50.5 34% 81 30.03 0.0
12 20:55 S 15 10.00 Fair CLR 82.9 50.9 33% 81 30.02 0.0
12 20:35 SE 13 G 17 10.00 Fair CLR 84.7 46.8 27% 82 30.02 0.0
12 20:15 NE 8 10.00 Partly Cloudy SCT070 SCT080 SCT090 90 35.2 14% 86 30.01 0.0
12 19:55 S 3 10.00 Fair CLR 86.2 44.2 23% 83 30.01 0.0
12 19:35 SW 3 10.00 Fair CLR 87.3 44.8 23% 84 30.01 0.0
12 19:15 SW 6 10.00 Fair CLR 90.9 40.1 17% 87 30.01 0.0
12 18:55 W 9 10.00 Fair CLR 93.4 38.1 14% 89 30 0.0
12 18:35 W 10 10.00 Fair CLR 94.5 36.3 13% 90 30 0.0
12 18:15 W 10 G 17 10.00 Fair CLR 95 36.7 13% 90 30 0.0
12 17:55 W 9 10.00 Fair CLR 95.5 36.5 96.1 83.7 13% 91 30 0.0
12 17:35 W 10 G 21 10.00 Fair CLR 95.9 37 13% 91 30 0.0
12 17:15 SW 8 10.00 Fair CLR 95.9 36.9 13% 91 30 0.0
12 16:55 SW 12 10.00 Fair CLR 95.9 37 13% 91 30.01 0.0
12 16:35 W 8 10.00 Fair CLR 95.4 37.9 13% 91 30.01 0.0
12 16:10 W 8 G 18 10.00 Fair CLR 95.4 39 14% 91 30.03 0.0
12 15:55 W 7 10.00 Fair CLR 95.4 38.5 14% 91 30.03 0.0
12 15:35 W 10 G 20 10.00 Fair CLR 95 39 14% 91 30.04 0.0
12 15:15 W 12 G 16 10.00 Fair CLR 95.4 43 16% 91 30.04 0.0
12 14:55 SW 3 10.00 Fair CLR 93.7 37.4 14% 89 30.05 0.0
12 14:35 S 7 10.00 Fair CLR 93.2 45.5 19% 89 30.06 0.0
12 14:15 SE 5 10.00 Fair CLR 92.7 51.1 24% 90 30.06 0.0
12 13:55 NW 5 10.00 Fair CLR 91.2 50.9 25% 88 30.07 0.0
12 13:35 E 3 10.00 Fair CLR 90 55.9 32% 88 30.09 0.0
12 13:15 S 6 10.00 Fair CLR 88.3 57.7 36% 87 30.1 0.0
12 12:55 S 6 10.00 Fair CLR 87.3 57.9 37% 86 30.1 0.0
12 12:35 SW 5 10.00 Fair CLR 86.2 56.1 36% 85 30.11 0.0
12 12:15 SW 3 10.00 Fair CLR 84.9 57.6 39% 84 30.11 0.0
12 11:55 S 7 10.00 Fair CLR 83.3 59.2 83.3 58.8 44% 83 30.12 0.0
12 11:35 S 7 10.00 Fair CLR 82.8 59.5 45% 83 30.13 0.0
12 11:15 S 7 10.00 Fair CLR 80.8 61.7 52% 82 30.13 0.0
12 10:55 S 9 10.00 Fair CLR 78.4 62.6 58% 80 30.14 0.0
12 10:35 S 9 10.00 Fair CLR 77 62.2 60% 79 30.14 0.0
12 10:15 S 8 10.00 Fair CLR 74.7 61.5 64% 30.15 0.0
12 09:55 SW 10 10.00 Fair CLR 73.9 61 64% 30.15 0.0
12 09:35 S 12 G 16 10.00 Fair CLR 73 60.6 65% 30.15 0.0
12 09:15 S 10 10.00 Fair CLR 71.8 60.4 68% 30.16 0.0
12 08:55 S 8 10.00 Fair CLR 70.7 59.9 69% 30.16 0.0
12 08:35 S 7 10.00 Fair CLR 69.6 59.2 70% 30.16 0.0
12 08:15 S 5 10.00 Fair CLR 67.8 57.4 69% 30.16 0.0
12 07:55 S 5 10.00 Fair CLR 65.8 57 73% 30.17 0.0
12 07:35 Calm 10.00 Fair CLR 64.6 57.9 79% 30.17 0.0
12 07:15 SW 5 10.00 Fair CLR 63 57.4 82% 30.15 0.0
12 06:55 S 3 10.00 Fair CLR 62.1 57.4 85% 30.15 0.0
12 06:35 Calm 10.00 Fair CLR 60.4 57.2 89% 30.15 0.0
12 06:15 Calm 10.00 Fair CLR 59 56.3 91% 30.15 0.0
12 05:55 Calm 10.00 Fair CLR 59.2 56.3 65.5 58.1 90% 30.14 0.0
12 05:35 Calm 10.00 Fair CLR 58.1 56.3 94% 30.14 0.0
12 05:15 Calm 10.00 Fair CLR 58.6 56.3 92% 30.13 0.0
12 04:55 Calm 10.00 Fair CLR 59.7 57.4 92% 30.13 0.0
12 04:35 Calm 10.00 Fair CLR 59.5 56.8 91% 30.13 0.0
12 04:15 Calm 10.00 Fair CLR 59.7 56.8 90% 30.14 0.0
12 03:55 Calm 10.00 Fair CLR 61.7 56.5 83% 30.13 0.0
12 03:35 Calm 10.00 Fair CLR 60.3 56.8 89% 30.12 0.0
12 03:15 SE 7 10.00 Fair CLR 61.2 56.7 85% 30.11 0.0
12 02:55 Calm 10.00 Fair CLR 62.8 55.8 78% 30.11 0.0
12 02:35 E 6 10.00 Fair CLR 61.7 57 85% 30.12 0.0
12 02:15 Calm 10.00 Fair CLR 62.2 56.5 82% 30.13 0.0
12 01:55 Calm 10.00 Fair CLR 62.8 56.3 80% 30.13 0.0
12 01:35 Calm 10.00 Fair CLR 61.9 56.5 83% 30.14 0.0
12 01:15 Calm 10.00 Fair CLR 60.6 56.5 86% 30.14 0.0
12 00:55 Calm 10.00 Fair CLR 63.5 56.3 78% 30.14 0.0
12 00:35 W 6 10.00 Fair CLR 62.1 57.2 84% 30.14 0.0
12 00:15 Calm 10.00 Fair CLR 64.2 55.4 73% 30.15 0.0
11 23:55 SE 6 10.00 Fair CLR 63.3 56.1 78.8 63.3 78% 30.15 0.0
11 23:35 SE 3 10.00 Fair CLR 64 55.8 75% 30.15 0.0
11 23:15 E 5 10.00 Fair CLR 64.9 55.4 71% 30.14 0.0
11 22:55 NE 7 10.00 Fair CLR 65.5 56.1 72% 30.12 0.0
11 22:35 N 10 10.00 Fair CLR 66 56.1 71% 30.11 0.0
11 22:15 N 6 10.00 Fair CLR 66.6 54 64% 30.09 0.0
11 21:55 SW 6 10.00 Fair CLR 68.9 51.8 55% 30.07 0.0
11 21:35 SW 7 10.00 Fair CLR 68.7 52.7 57% 30.06 0.0
11 21:15 W 7 10.00 Fair CLR 71.2 50.9 49% 30.05 0.0
11 20:55 NE 3 10.00 Fair CLR 76.3 44.4 32% 78 30.04 0.0
11 20:35 NE 7 10.00 Fair CLR 75 46.6 37% 77 30.04 0.0
11 20:15 NE 15 10.00 Mostly Cloudy SCT070 BKN100 71.8 50.2 47% 30.07 0.0
11 19:55 NE 21 G 35 10.00 Overcast and Breezy SCT090 OVC110 70.7 50.4 49% 30.1 0.0
11 19:35 N 32 G 38 10.00 Partly Cloudy and Windy SCT120 73.4 48.2 41% 30.09 0.0
11 19:15 N 23 G 29 10.00 Thunderstorm in Vicinity and Breezy CLR 74.3 48.4 40% 30.11 0.0
11 18:55 N 20 G 25 10.00 Partly Cloudy SCT090 SCT120 72.9 51.6 47% 30.12 0.0
11 18:35 N 16 G 25 10.00 Thunderstorm in Vicinity SCT090 SCT120 72.9 51.4 47% 30.12 0.0
11 18:15 NW 15 10.00 Fair CLR 74.1 50.4 43% 30.11 0.0
11 17:55 N 18 G 24 10.00 Fair CLR 73.6 50 84.2 73.6 44% 30.1 0.0
11 17:35 N 20 G 31 10.00 Fair CLR 75.6 49.8 40% 78 30.1 0.0
11 16:55 Calm 10.00 Fair CLR 82.6 52 35% 81 30.06 0.0
11 16:35 Calm 10.00 Fair CLR 83.5 50 31% 82 30.06 0.0
11 16:15 Calm 10.00 Fair CLR 83.3 48.9 30% 81 30.05 0.0
11 15:55 Calm 10.00 Fair CLR 82.9 49.5 31% 81 30.05 0.0
11 15:35 NE 5 10.00 Fair CLR 82.9 47.8 29% 81 30.06 0.0
11 15:15 NW 5 10.00 Fair CLR 82.8 50 32% 81 30.07 0.0
11 14:55 N 5 10.00 Fair CLR 82.8 52.7 35% 82 30.08 0.0
11 14:35 Calm 10.00 Fair CLR 81.5 54.1 39% 81 30.08 0.0
11 14:15 E 3 10.00 Fair CLR 81.5 53.8 38% 81 30.08 0.0
11 13:55 Calm 10.00 Fair CLR 80.8 53.8 39% 80 30.08 0.0
11 13:35 N 6 10.00 Fair CLR 79.7 55.2 43% 80 30.08 0.0
11 13:15 Calm 10.00 Fair CLR 79.5 57 46% 80 30.1 0.0
11 12:55 NW 5 10.00 Fair CLR 79 57.4 48% 80 30.1 0.0
11 12:35 E 7 10.00 Fair CLR 78.4 56.1 46% 79 30.11 0.0
11 12:15 NE 9 10.00 Fair CLR 79.3 58.5 49% 80 30.11 0.0
11 11:55 NE 7 10.00 Fair CLR 78.1 56.5 78.1 56.7 48% 79 30.11 0.0 0.01
11 11:35 NE 7 10.00 Fair CLR 77.9 55.9 47% 79 30.11 0.0
11 11:15 NE 3 10.00 Fair CLR 75.9 57.6 53% 78 30.11 0.0
11 10:35 NE 6 10.00 Fair CLR 73.8 58.6 59% 30.11 0.0
11 10:15 Calm 10.00 Fair CLR 72.9 56.8 57% 30.11 0.0
11 09:55 N 3 10.00 Fair CLR 72.5 58.1 61% 30.11 0.0 0.01
11 09:35 N 3 10.00 Fair CLR 70.5 59.5 68% 30.11 0.0
11 09:15 NW 3 10.00 Fair CLR 69.1 60.4 74% 30.11 0.0
11 08:55 Calm 10.00 Fair CLR 66.7 60.1 79% 30.11 0.0
11 08:30 Calm 10.00 Fair CLR 64.6 60.1 85% 30.1 0.0
11 08:10 Calm 10.00 Fair CLR 62.8 59.9 90% 30.1 0.0
11 07:55 Calm 10.00 Fair CLR 61.7 59.4 92% 30.1 0.0
11 07:35 W 3 10.00 Fair CLR 61.7 59.4 92% 30.1 0.0
11 07:15 Calm 10.00 Fair CLR 61 58.6 92% 30.1 0.0
11 06:55 Calm 10.00 Fair CLR 59.7 58.1 94% 30.1 0.0
11 06:35 Calm 10.00 Fair CLR 58.1 57.4 97% 30.09 0.0
11 06:15 Calm 7.00 Fair CLR 57.2 56.5 97% 30.09 0.0
11 05:55 N 5 10.00 Fair CLR 56.7 56.3 61.7 56.5 99% 30.09 0.0
11 05:35 NE 5 7.00 Fair CLR 56.5 55.9 98% 30.08 0.0
11 05:15 N 3 10.00 Fair CLR 57.2 56.3 97% 30.07 0.0
11 04:35 Calm 10.00 Fair CLR 58.5 57 95% 30.06 0.0
11 04:15 Calm 10.00 Fair CLR 59 57.2 94% 30.05 0.0
11 03:55 Calm 10.00 Fair CLR 59 57.2 94% 30.05 0.0
11 03:35 Calm 10.00 Fair CLR 59.7 57.6 93% 30.06 0.0
11 03:15 Calm 10.00 Fair CLR 59.2 57.6 94% 30.06 0.0
11 02:55 Calm 10.00 Fair CLR 59 57.6 95% 30.06 0.0
11 02:35 Calm 10.00 Fair CLR 59.9 58.1 94% 30.06 0.0
11 02:15 Calm 10.00 Fair CLR 60.4 58.5 93% 30.07 0.0
11 01:55 Calm 10.00 Fair CLR 59.7 58.3 95% 30.07 0.0
11 01:35 Calm 10.00 Fair CLR 60.8 58.6 93% 30.06 0.0
11 01:15 Calm 10.00 Fair CLR 60.3 59 96% 30.06 0.0
11 00:55 Calm 10.00 Fair CLR 61.5 59.5 93% 30.07 0.0
11 00:35 Calm 10.00 Fair CLR 61.7 59.9 94% 30.08 0.0
11 00:15 Calm 10.00 Fair CLR 61.5 59.4 93% 30.08 0.0
10 23:55 Calm 10.00 Fair CLR 61.2 58.6 68.4 60.8 91% 30.08 0.0
10 23:35 Calm 10.00 Fair CLR 60.8 58.6 93% 30.07 0.0
10 23:10 Calm 10.00 Fair CLR 62.1 59 90% 30.08 0.0
10 22:55 Calm 10.00 Fair CLR 62.6 58.6 87% 30.08 0.0
10 22:35 Calm 10.00 Fair CLR 62.4 58.8 88% 30.08 0.0
10 22:10 Calm 10.00 Fair CLR 62.4 59 89% 30.07 0.0
10 21:55 NE 3 10.00 Fair CLR 62.8 58.8 87% 30.07 0.0
10 21:35 Calm 10.00 Fair CLR 63 58.5 85% 30.06 0.0
10 21:15 NE 3 10.00 Fair CLR 63.3 58.8 85% 30.06 0.0
10 20:55 NE 5 10.00 Fair CLR 63.9 59 84% 30.06 0.0
10 20:35 NE 7 10.00 Fair CLR 64.4 59 83% 30.04 0.0
10 20:15 NE 7 10.00 Fair CLR 65.1 59.2 81% 30.04 0.0
10 19:55 NE 8 10.00 Fair CLR 65.5 59.4 81% 30.03 0.0
10 19:35 NE 7 10.00 Fair CLR 66.6 59.5 78% 30.03 0.0
10 19:15 N 6 10.00 Fair CLR 67.6 59.2 74% 30.03 0.0
10 18:55 N 5 10.00 Partly Cloudy SCT120 68.4 57.6 69% 30.03 0.0
10 18:35 NW 3 10.00 Overcast OVC110 68.2 57.7 69% 30.02 0.0
10 18:15 Calm 10.00 Overcast SCT045 SCT050 OVC110 68.4 57.7 69% 30.02 0.0
10 17:55 Calm 10.00 Overcast SCT042 OVC110 68.2 57.2 68.4 60.3 68% 30.02 0.0 0.04
10 17:35 Calm 10.00 Overcast OVC110 67.8 57.2 69% 30.03 0.0
10 17:15 Calm 10.00 Overcast OVC110 67.3 58.1 73% 30.03 0.0
10 16:55 Calm 10.00 Overcast OVC110 66.7 58.5 75% 30.03 0.0
10 16:35 Calm 10.00 Mostly Cloudy SCT090 BKN110 65.3 58.6 79% 30.03 0.0
10 16:15 SW 3 10.00 Mostly Cloudy SCT050 SCT090 BKN110 63 57.9 84% 30.04 0.0
10 15:55 SW 5 10.00 Overcast SCT050 BKN060 OVC110 62.6 58.6 87% 30.04 0.0
10 15:35 Calm 10.00 Light Drizzle OVC050 61 57.6 89% 30.06 0.0
10 15:15 Calm 5.00 Drizzle OVC050 60.6 56.1 85% 30.07 0.0
10 14:55 Calm 7.00 Light Rain SCT044 BKN050 OVC065 60.8 56.7 86% 30.08 0.0 0.04 0.04
10 14:35 NW 5 10.00 Light Rain SCT042 OVC050 60.6 57.2 89% 30.08 0.0 0.02
10 14:15 N 6 7.00 Rain SCT018 SCT025 OVC050 60.6 57.4 89% 30.08 0.0 0.01
10 13:50 N 9 7.00 Light Rain SCT021 BKN031 OVC048 60.8 56.8 87% 30.09 0.0
10 13:35 NW 8 10.00 Light Rain SCT042 BKN048 OVC055 62.8 57.9 84% 30.09 0.0
10 13:15 NW 7 10.00 Overcast SCT015 BKN055 OVC070 62.6 56.8 82% 30.1 0.0
10 12:55 NW 8 7.00 Overcast BKN015 BKN027 OVC050 61.9 57.7 86% 30.11 0.0
10 12:35 W 9 10.00 Overcast SCT015 BKN050 OVC060 61.9 58.6 89% 30.11 0.0
10 12:15 W 6 10.00 Light Rain SCT011 BKN050 OVC070 61 58.6 92% 30.12 0.0
10 11:55 W 8 7.00 Rain SCT011 BKN034 OVC050 61 59.4 61.2 58.3 94% 30.13 0.0 0.02 0.26
10 11:35 NW 7 10.00 Light Rain SCT011 SCT026 OVC050 60.3 58.3 93% 30.14 0.0 0.01
10 11:15 W 7 10.00 Light Rain SCT022 BKN050 OVC070 60.4 59.2 96% 30.14 0.0 0.01
10 10:55 NW 7 10.00 Light Rain BKN007 BKN030 OVC055 59.9 58.5 95% 30.15 0.0 0.08
10 10:35 NW 7 7.00 Rain BKN007 BKN020 OVC036 59.9 59 97% 30.15 0.0 0.05
10 10:15 N 9 10.00 Rain SCT007 SCT020 OVC036 59.5 58.3 96% 30.15 0.0 0.02
10 09:55 NW 9 10.00 Light Rain SCT007 BKN043 OVC050 59.9 58.6 96% 30.15 0.0 0.05
10 09:35 NW 5 10.00 Light Rain BKN043 BKN055 OVC075 59.9 58.6 96% 30.15 0.0 0.03
10 09:15 NW 3 7.00 Rain BKN075 OVC085 59.2 58.3 97% 30.15 0.0 0.01
10 08:55 W 7 10.00 Light Rain SCT075 OVC090 59.2 58.1 96% 30.15 0.0 0.02 0.1
10 08:35 W 5 10.00 Rain OVC090 59.2 58.3 97% 30.15 0.0 0.02
10 08:15 W 5 10.00 Light Rain SCT005 SCT027 OVC090 58.8 57.9 97% 30.15 0.0 0.01
10 07:55 NW 5 10.00 Light Rain OVC090 58.8 58.1 97% 30.16 0.0 0.05
10 07:35 NW 6 10.00 Rain SCT075 OVC090 58.3 57.4 97% 30.17 0.0 0.04
10 07:15 NW 6 10.00 Light Rain SCT006 SCT030 OVC090 58.3 57.2 96% 30.17 0.0 0.02
10 06:55 NW 6 7.00 Light Rain SCT006 BKN019 OVC090 59 58.1 97% 30.17 0.0 0.03
10 06:35 Calm 10.00 Light Rain SCT006 SCT019 OVC090 59 58.1 97% 30.17 0.0 0.02
10 06:15 Calm 10.00 Drizzle OVC090 59 58.1 97% 30.17 0.0 0.01
10 05:55 N 6 10.00 Light Rain SCT080 OVC090 59.2 57.9 61.7 59 96% 30.16 0.0 0.04 0.1
10 05:35 N 3 10.00 Light Rain OVC090 59.4 58.1 96% 30.15 0.0 0.02
10 05:15 N 3 10.00 Light Rain OVC085 59 57.7 96% 30.15 0.0 0.01
10 04:55 N 10 10.00 Light Rain SCT075 OVC085 59.4 57.9 95% 30.14 0.0 0.04
10 04:35 NE 9 10.00 Light Rain SCT075 OVC085 59.5 57.6 93% 30.15 0.0 0.03
10 04:15 NE 7 10.00 Light Rain SCT070 OVC085 60.1 57.6 91% 30.15 0.0 0.01
10 03:55 NE 6 10.00 Light Rain OVC090 60.3 57.7 91% 30.15 0.0 0.02
10 03:35 N 5 10.00 Rain OVC100 60.1 57.6 91% 30.13 0.0 0.01
10 03:15 N 5 10.00 Light Rain OVC090 60.8 56.8 87% 30.13 0.0
10 02:55 N 8 10.00 Light Rain SCT065 OVC090 60.8 56.7 86% 30.13 0.0
10 02:35 NW 6 10.00 Light Rain SCT065 OVC090 61 56.3 85% 30.12 0.0
Date Time (mdt) Wind (mph) Vis. (mi.) Weather Sky Cond. Air Dwpt Max. Min. Relative Humidity Wind Chill (°F) Heat Index (°F) altimeter (in) sea level (mb) 1 hr 3 hr 6 hr
6 hour
Temperature (ºF) Pressure Precipitation (in)